Weather History for Pompano Beach, FL

Change the Weather History Date:

Tuesday, April 23, 2013

  Actual Average Record
Temperature  
Mean Temperature 75 °F -  
Max Temperature 82 °F 85 °F 92 °F (1971)
Min Temperature 68 °F 66 °F 52 °F (1986)
Cooling Degree Days 10    
Growing Degree Days 25 (Base 50)    
Moisture  
Dew Point 65 °F    
Average Humidity 73    
Maximum Humidity 100    
Minimum Humidity 54    
Precipitation  
Precipitation 0.01 in - - ()
Sea Level Pressure  
Sea Level Pressure 30.03 in    
Wind  
Wind Speed 10 mph (NNE)    
Max Wind Speed 21 mph    
Max Gust Speed 26 mph    
Visibility 10 miles    
Events      
Averages and records for this station are not official NWS values.
T = Trace of Precipitation, MM = Missing Value Source: NWS Daily Summary

Daily Weather History Graph

Daily Weather History Graph

Search for Another Location

Airport:

Trip Planner

Search our weather history database for the weather conditions in past years. The results will help you decide how hot, cold, wet, or windy it might be!

Date:

Astronomy

Apr. 23, 2013 Rise Set
Actual Time 6:49 AM EDT 7:48 PM EDT
Civil Twilight 6:25 AM EDT 8:12 PM EDT
Nautical Twilight 5:57 AM EDT 8:40 PM EDT
Astronomical Twilight 5:28 AM EDT 9:09 PM EDT
Moon 5:51 PM EDT (4/23) 5:03 AM EDT (4/23)
Length of Visible Light 13h 46m
Length of Day
12h 58m
Waxing Gibbous, 94% of the Moon is Illuminated
Apr 23
Waxing Gibbous
Apr 25
Full
May 2
Last Quarter
May 9
New
May 18
First Quarter

Hourly Weather History & Observations

Time (EDT) Temp. Heat Index Dew Point Humidity Pressure Visibility Wind Dir Wind Speed Gust Speed Precip Events Conditions
12:53 AM 70.0 °F - 70.0 °F 100% 30.02 in 10.0 mi NW 3.5 mph - N/A   Clear
1:53 AM 70.0 °F - 69.1 °F 97% 30.00 in 10.0 mi NNW 5.8 mph - 0.01 in   Clear
2:53 AM 69.1 °F - 68.0 °F 96% 29.98 in 10.0 mi NW 5.8 mph - N/A   Clear
3:53 AM 69.1 °F - 68.0 °F 96% 29.97 in 10.0 mi NW 8.1 mph - N/A   Clear
4:53 AM 69.1 °F - 68.0 °F 96% 29.96 in 10.0 mi NW 6.9 mph - N/A   Clear
5:53 AM 68.0 °F - 68.0 °F 100% 29.98 in 10.0 mi NW 6.9 mph - N/A   Clear
6:53 AM 68.0 °F - 68.0 °F 100% 29.99 in 10.0 mi NW 5.8 mph - N/A   Partly Cloudy
7:53 AM 70.0 °F - 68.0 °F 93% 30.01 in 10.0 mi NNW 5.8 mph - N/A   Clear
8:53 AM 75.9 °F - 68.0 °F 76% 30.02 in 10.0 mi North 8.1 mph - N/A   Partly Cloudy
9:53 AM 79.0 °F - 66.9 °F 66% 30.05 in 10.0 mi NNE 18.4 mph 23.0 mph 0.00 in   Mostly Cloudy
10:53 AM 81.0 °F 83.0 °F 66.0 °F 60% 30.06 in 10.0 mi NE 17.3 mph 25.3 mph N/A   Clear
11:53 AM 79.0 °F - 66.9 °F 66% 30.07 in 10.0 mi NNE 17.3 mph 26.5 mph N/A   Scattered Clouds
12:53 PM 82.0 °F 83.4 °F 64.0 °F 54% 30.06 in 10.0 mi NNE 18.4 mph 25.3 mph N/A   Clear
1:53 PM 82.0 °F 84.5 °F 66.9 °F 60% 30.04 in 10.0 mi ENE 19.6 mph 25.3 mph N/A   Scattered Clouds
2:53 PM 82.0 °F 84.1 °F 66.0 °F 58% 30.04 in 10.0 mi NE 17.3 mph 25.3 mph N/A   Partly Cloudy
3:53 PM 81.0 °F 82.7 °F 64.9 °F 58% 30.03 in 10.0 mi NE 17.3 mph 25.3 mph N/A   Partly Cloudy
4:53 PM 81.0 °F 82.2 °F 63.0 °F 54% 30.02 in 10.0 mi NNE 20.7 mph 26.5 mph N/A   Scattered Clouds
5:53 PM 79.0 °F - 63.0 °F 58% 30.03 in 10.0 mi NE 15.0 mph 23.0 mph N/A   Clear
6:53 PM 77.0 °F - 62.1 °F 60% 30.04 in 10.0 mi NE 16.1 mph 24.2 mph N/A   Clear
7:53 PM 75.9 °F - 61.0 °F 60% 30.06 in 10.0 mi NE 13.8 mph - N/A   Partly Cloudy
8:53 PM 75.0 °F - 62.1 °F 64% 30.07 in 10.0 mi NE 16.1 mph - N/A   Partly Cloudy
9:53 PM 75.0 °F - 62.1 °F 64% 30.09 in 10.0 mi NE 13.8 mph - N/A   Scattered Clouds
10:53 PM 73.9 °F - 61.0 °F 64% 30.10 in 10.0 mi NE 9.2 mph - N/A   Partly Cloudy
11:53 PM 73.9 °F - 59.0 °F 59% 30.10 in 10.0 mi ENE 10.4 mph - N/A   Partly Cloudy